Location: Unspecified
(0.0000°N, 0.0000°E)
Time: 19:14:00
(UTC+00:00)

ARIANE 2 DEB - Pass Details

Date: 09 March 2026
Orbit: 701 x 35694 km, 8.0° (Epoch: 21 April)

Event Time Altitude Azimuth Distance (km) Brightness Sun altitude
Rises 14:04:07 0° 279° (W) 4,669 ? 61.3°
Reaches altitude 10° 14:05:57 10° 282° (WNW) 4,192 ? 60.8°
Maximum altitude 22:12:52 78° 114° (ESE) 25,980 ? -60.3°
Enters shadow 22:51:44 76° 118° (ESE) 20,737 ? -69.9°
Exits shadow 23:48:09 48° 107° (ESE) 10,893 ? -83.0°
Drops below altitude 10° 00:08:02 10° 101° (E) 8,471 ? -85.8°
Sets 00:11:40 0° 100° (E) 8,438 ? -85.8°
